This is the latest recevied weather packets stored in our database for station/object OE9SAU-10. If no packets are shown the sender has not sent any weather packets the latest 10 day(s).
| Time | Temp. | Humidity | Pressure | Rain* | Wind** | Luminosity | Snow |
|---|---|---|---|---|---|---|---|
| 1777481283 | 21.11° C | 45% | 1021.3 hPa | - | - | - | - |
| 1777480383 | 20.56° C | 46% | 1021.3 hPa | - | - | - | - |
| 1777479483 | 20° C | 46% | 1021.2 hPa | - | - | - | - |
| 1777478583 | 21.11° C | 46% | 1021.2 hPa | - | - | - | - |
| 1777477682 | 20° C | 45% | 1021.2 hPa | - | - | - | - |
| 1777476782 | 20.56° C | 45% | 1021.3 hPa | - | - | - | - |
| 1777475882 | 20.56° C | 46% | 1021.4 hPa | - | - | - | - |
| 1777474982 | 20.56° C | 46% | 1021.3 hPa | - | - | - | - |
| 1777474082 | 20.56° C | 49% | 1021.4 hPa | - | - | - | - |
| 1777473182 | 20.56° C | 48% | 1021.5 hPa | - | - | - | - |
| 1777472282 | 20.56° C | 48% | 1021.6 hPa | - | - | - | - |
| 1777471382 | 21.11° C | 49% | 1021.5 hPa | - | - | - | - |
| 1777470482 | 20.56° C | 49% | 1021.5 hPa | - | - | - | - |
| 1777469582 | 21.11° C | 47% | 1021.6 hPa | - | - | - | - |
| 1777468682 | 20.56° C | 49% | 1021.7 hPa | - | - | - | - |
| 1777467782 | 20.56° C | 49% | 1021.7 hPa | - | - | - | - |
| 1777466882 | 20° C | 49% | 1021.8 hPa | - | - | - | - |
| 1777465982 | 20° C | 51% | 1021.9 hPa | - | - | - | - |
| 1777465082 | 20° C | 52% | 1021.9 hPa | - | - | - | - |
| 1777464182 | 19.44° C | 53% | 1022 hPa | - | - | - | - |
| 1777463281 | 18.89° C | 55% | 1022.1 hPa | - | - | - | - |
| 1777462381 | 18.33° C | 56% | 1022.1 hPa | - | - | - | - |
| 1777461481 | 18.33° C | 55% | 1022.1 hPa | - | - | - | - |
| 1777460581 | 18.33° C | 56% | 1022.1 hPa | - | - | - | - |
| 1777459681 | 17.78° C | 56% | 1022.2 hPa | - | - | - | - |
* Rain since midnight (hover to see other rain measurements)
** Current wind speed in m/s (hover to see current wind gust speed)